EW2785 Weather Reports


time (UTC)temp
C
wind
direction
speed
KPH
gust
KPH
rain 1hr
cm
rain 24hr
cm
rain mn
cm
humidity
%
barometer
mb
20260831203038 23 226 0.0 1.6 0.00 0.00 0.00 53 1017.5
20260831201537 24 211 0.0 3.2 0.00 0.00 0.00 60 1017.7
20260831200034 24 201 0.0 8.0 0.00 0.00 0.00 56 1018.0
20260831194532 24 197 0.0 8.0 0.00 0.00 0.00 56 1018.2
20260831193056 23 215 1.6 8.0 0.00 0.00 0.00 58 1018.2
20260831191529 24 225 0.0 8.0 0.00 0.00 0.00 58 1018.3
20260831190026 23 186 1.6 12.9 0.00 0.00 0.00 61 1018.4
20260831184521 23 197 3.2 9.7 0.00 0.00 0.00 63 1018.4
20260831183020 22 205 0.0 11.3 0.00 0.00 0.00 65 1018.5
20260831181525 22 177 1.6 9.7 0.00 0.00 0.00 63 1018.8
20260831180019 22 215 0.0 4.8 0.00 0.00 0.00 66 1018.9
20260831174517 22 215 0.0 4.8 0.00 0.00 0.00 68 1019.2
20260831173017 21 209 1.6 8.0 0.00 0.00 0.00 71 1019.3
20260831171511 21 331 0.0 8.0 0.00 0.00 0.00 72 1019.3
20260831170008 21 360 3.2 6.4 0.00 0.00 0.00 71 1019.4
20260831164507 21 319 1.6 6.4 0.00 0.00 0.00 75 1019.3
20260831163006 21 207 0.0 6.4 0.00 0.00 0.00 75 1019.6
20260831161506 21 338 0.0 6.4 0.00 0.00 0.00 75 1019.7
20260831160002 20 246 1.6 6.4 0.00 0.00 0.00 78 1019.9
20260831154501 20 336 0.0 4.8 0.00 0.00 0.00 78 1020.0
20260831153058 20 190 0.0 11.3 0.00 0.00 0.00 80 1020.2
20260831151556 20 34 0.0 4.8 0.00 0.00 0.00 81 1020.0
20260831144557 18 162 0.0 3.2 0.00 0.00 0.00 85 1019.8
20260831143047 18 219 3.2 6.4 0.00 0.00 0.00 87 1020.1
20260831141549 17 19 0.0 4.8 0.00 0.00 0.00 88 1020.1
20260831140044 17 209 0.0 3.2 0.00 0.00 0.00 89 1020.3
20260831134544 17 360 0.0 3.2 0.00 0.00 0.00 91 1020.1
20260831133041 16 5 0.0 3.2 0.00 0.00 0.00 92 1020.2
20260831131554 16 348 0.0 4.8 0.00 0.00 0.00 92 1020.2
20260831130045 16 350 0.0 3.2 0.00 0.00 0.00 93 1020.4
20260831124541 16 350 1.6 6.4 0.00 0.00 0.00 93 1020.5
20260831123043 16 334 0.0 3.2 0.00 0.00 0.00 93 1020.6
20260831121537 15 201 0.0 0.0 0.00 0.00 0.00 93 1020.6
20260831120036 15 201 0.0 0.0 0.00 0.00 0.00 93 1020.5
20260831114536 15 201 0.0 0.0 0.00 0.00 0.00 93 1020.6
20260831113041 15 201 0.0 1.6 0.00 0.00 0.00 93 1020.4
20260831111540 15 201 0.0 0.0 0.00 0.00 0.00 93 1020.1
20260831110033 15 201 0.0 0.0 0.00 0.00 0.00 93 1020.0
20260831104533 15 201 0.0 0.0 0.00 0.00 0.00 92 1019.7
20260831103027 15 201 0.0 0.0 0.00 0.00 0.00 92 1019.6
20260831101527 15 201 0.0 0.0 0.00 0.00 0.00 92 1019.7
20260831100034 15 201 0.0 0.0 0.00 0.00 0.00 92 1019.6
20260831094533 15 201 0.0 0.0 0.00 0.00 0.00 92 1019.5
20260831093042 15 201 0.0 0.0 0.00 0.00 0.00 91 1019.4
20260831091523 15 201 0.0 0.0 0.00 0.00 0.00 91 1019.4
20260831090020 15 201 0.0 0.0 0.00 0.00 0.00 91 1019.2
20260831084517 15 201 0.0 0.0 0.00 0.00 0.00 91 1019.0
20260831083017 15 201 0.0 0.0 0.00 0.00 0.00 91 1019.1
20260831081516 15 201 0.0 0.0 0.00 0.00 0.00 91 1019.1
20260831080014 15 201 0.0 0.0 0.00 0.00 0.00 91 1019.0
20260831074513 15 201 0.0 0.0 0.00 0.00 0.00 91 1018.9
20260831073013 16 201 0.0 0.0 0.00 0.00 0.00 90 1018.8
20260831071523 16 201 0.0 0.0 0.00 0.00 0.00 90 1018.9
20260831070009 16 201 0.0 0.0 0.00 0.00 0.00 90 1018.7
20260831064507 16 201 0.0 0.0 0.00 0.00 0.00 90 1018.5
20260831063008 16 201 0.0 0.0 0.00 0.00 0.00 90 1018.3
20260831061503 16 201 0.0 0.0 0.00 0.00 0.00 90 1018.4
20260831060004 17 201 0.0 0.0 0.00 0.00 0.00 90 1018.6
20260831054501 17 201 0.0 0.0 0.00 0.00 0.00 90 1018.6
20260831053130 17 201 0.0 0.0 0.00 0.00 0.00 89 1018.6
20260831051557 17 201 0.0 0.0 0.00 0.00 0.00 90 1018.5
20260831050056 17 201 0.0 0.0 0.00 0.00 0.00 89 1018.5
20260831044639 17 201 0.0 0.0 0.00 0.00 0.00 89 1018.5
20260831043052 17 201 0.0 0.0 0.00 0.00 0.00 89 1018.4
20260831041600 17 201 0.0 1.6 0.00 0.00 0.00 89 1018.3
20260831040051 17 201 0.0 0.0 0.00 0.00 0.00 89 1018.3
20260831034552 18 201 0.0 0.0 0.00 0.00 0.00 88 1018.3
20260831033105 18 201 0.0 0.0 0.00 0.00 0.00 88 1018.1
20260831031552 18 201 0.0 1.6 0.00 0.00 0.00 88 1018.2
20260831030050 18 201 0.0 1.6 0.00 0.00 0.00 88 1018.2
20260831024549 18 201 0.0 0.0 0.00 0.00 0.00 87 1018.2
20260831023048 18 201 0.0 0.0 0.00 0.00 0.00 87 1018.1
20260831021548 18 201 0.0 0.0 0.00 0.00 0.00 86 1017.8
20260831020048 18 201 0.0 0.0 0.00 0.00 0.00 85 1018.1
20260831014549 18 201 0.0 0.0 0.00 0.00 0.00 85 1017.9
20260831013047 18 201 0.0 0.0 0.00 0.00 0.00 85 1017.7
20260831011554 19 201 0.0 0.0 0.00 0.00 0.00 84 1017.4
20260831010059 19 201 0.0 1.6 0.00 0.00 0.00 83 1017.3
20260831004545 20 201 0.0 0.0 0.00 0.00 0.00 83 1017.0
20260831003045 20 201 0.0 0.0 0.00 0.00 0.00 82 1016.9
20260831001545 20 201 0.0 3.2 0.00 0.00 0.00 81 1016.6
20260831000046 20 207 1.6 9.7 0.00 0.00 0.00 81 1016.4
20260830234543 20 200 0.0 12.9 0.00 0.00 0.00 81 1016.4
20260830233044 20 207 0.0 8.0 0.00 0.00 0.00 80 1016.2
20260830231543 20 216 3.2 11.3 0.00 0.00 0.00 80 1016.2
20260830230042 20 221 1.6 4.8 0.00 0.00 0.00 81 1016.2
20260830224542 20 126 0.0 4.8 0.00 0.00 0.00 80 1016.2
20260830223042 20 148 0.0 4.8 0.00 0.00 0.00 80 1016.0
20260830221541 20 163 0.0 1.6 0.00 0.00 0.00 79 1016.1
20260830220040 21 207 0.0 6.4 0.00 0.00 0.00 78 1016.1
20260830214540 21 215 0.0 3.2 0.00 0.00 0.00 76 1016.1
20260830213053 21 225 0.0 9.7 0.00 0.00 0.00 74 1015.9
20260830211540 22 230 1.6 8.0 0.00 0.00 0.00 72 1016.0
20260830210039 22 213 0.0 4.8 0.00 0.00 0.00 72 1015.9
20260830204542 22 203 0.0 4.8 0.00 0.00 0.00 70 1015.9